Time,TemperatureF,DewpointF,PressureIn,WindDirection,WindDirectionDegrees,WindSpeedMPH,WindSpeedGustMPH,Humidity,HourlyPrecipIn,Conditions,Clouds,dailyrainin,SoftwareType,DateUTC
2013-01-10 00:03:00,27.5,21.2,30.47,SSE,158,0.0,0.0,77,0.00,SCT,,0.00,WeatherDisplay:10.37,2013-01-10 06:03:00,
2013-01-10 00:08:00,27.1,20.9,30.47,SE,135,0.0,0.0,77,0.00,SCT,,0.00,WeatherDisplay:10.37,2013-01-10 06:08:00,
2013-01-10 00:13:00,27.1,20.9,30.47,SE,135,0.0,0.0,77,0.00,SCT,,0.00,WeatherDisplay:10.37,2013-01-10 06:13:00,
2013-01-10 00:18:00,27.1,20.9,30.47,SSE,158,1.2,1.2,77,0.00,SCT,,0.00,WeatherDisplay:10.37,2013-01-10 06:18:00,
2013-01-10 00:23:00,27.0,20.7,30.48,SW,225,0.0,0.3,77,0.00,SCT,,0.00,WeatherDisplay:10.37,2013-01-10 06:23:00,
2013-01-10 00:28:00,26.8,20.5,30.48,SE,135,1.2,1.2,77,0.00,SCT,,0.00,WeatherDisplay:10.37,2013-01-10 06:28:00,
2013-01-10 00:33:00,26.8,20.8,30.48,SW,225,0.0,0.3,78,0.00,SCT,,0.00,WeatherDisplay:10.37,2013-01-10 06:33:00,
2013-01-10 00:38:00,26.8,20.8,30.48,SSE,158,0.0,0.3,78,0.00,SCT,,0.00,WeatherDisplay:10.37,2013-01-10 06:38:00,
2013-01-10 00:43:00,26.8,20.8,30.48,South,180,0.0,0.2,78,0.00,SCT,,0.00,WeatherDisplay:10.37,2013-01-10 06:43:00,
2013-01-10 00:48:00,26.6,20.7,30.48,SE,135,0.0,0.2,78,0.00,SCT,,0.00,WeatherDisplay:10.37,2013-01-10 06:48:00,
2013-01-10 00:53:00,26.6,21.0,30.48,SSE,158,0.0,0.1,79,0.00,SCT,,0.00,WeatherDisplay:10.37,2013-01-10 06:53:00,
2013-01-10 00:58:00,26.8,20.8,30.48,SE,135,0.0,0.1,78,0.00,SCT,,0.00,WeatherDisplay:10.37,2013-01-10 06:58:00,
2013-01-10 01:03:00,26.4,20.8,30.48,SSE,158,0.0,0.1,79,0.00,SCT,,0.00,WeatherDisplay:10.37,2013-01-10 07:03:00,
2013-01-10 01:08:00,26.4,20.8,30.48,SSE,158,0.0,0.1,79,0.00,SCT,,0.00,WeatherDisplay:10.37,2013-01-10 07:08:00,
2013-01-10 01:13:00,26.4,20.8,30.48,SE,135,0.0,0.1,79,0.00,SCT,,0.00,WeatherDisplay:10.37,2013-01-10 07:13:00,
2013-01-10 01:18:00,26.4,20.8,30.48,SSE,158,1.2,1.2,79,0.00,SCT,,0.00,WeatherDisplay:10.37,2013-01-10 07:18:00,
2013-01-10 01:23:00,26.2,20.6,30.48,South,180,0.0,0.2,79,0.00,SCT,,0.00,WeatherDisplay:10.37,2013-01-10 07:23:00,
2013-01-10 01:28:00,26.4,20.8,30.48,SSE,158,0.0,0.2,79,0.00,SCT,,0.00,WeatherDisplay:10.37,2013-01-10 07:28:00,
2013-01-10 01:33:00,26.1,20.4,30.48,South,180,0.0,0.0,79,0.00,SCT,,0.00,WeatherDisplay:10.37,2013-01-10 07:33:00,
2013-01-10 01:38:00,26.1,20.4,30.48,East,90,0.0,0.0,79,0.00,SCT,,0.00,WeatherDisplay:10.37,2013-01-10 07:38:00,
2013-01-10 01:43:00,26.1,20.4,30.49,NE,45,0.0,0.1,79,0.00,SCT,,0.00,WeatherDisplay:10.37,2013-01-10 07:43:00,
2013-01-10 01:48:00,25.9,20.3,30.49,NE,45,0.0,0.1,79,0.00,SCT,,0.00,WeatherDisplay:10.37,2013-01-10 07:48:00,
2013-01-10 01:53:00,26.1,20.4,30.49,South,180,0.0,0.0,79,0.00,SCT,,0.00,WeatherDisplay:10.37,2013-01-10 07:53:00,
2013-01-10 01:58:00,25.7,20.1,30.49,South,180,0.0,0.0,79,0.00,SCT,,0.00,WeatherDisplay:10.37,2013-01-10 07:58:00,
2013-01-10 02:03:00,25.7,20.1,30.48,NW,315,0.0,0.0,79,0.00,SCT,,0.00,WeatherDisplay:10.37,2013-01-10 08:03:00,
2013-01-10 02:08:00,25.5,19.9,30.48,NW,315,0.0,0.0,79,0.00,SCT,,0.00,WeatherDisplay:10.37,2013-01-10 08:08:00,
2013-01-10 02:13:00,25.5,20.2,30.48,South,180,0.0,0.0,80,0.00,SCT,,0.00,WeatherDisplay:10.37,2013-01-10 08:13:00,
2013-01-10 02:18:00,25.5,20.2,30.48,South,180,0.0,0.0,80,0.00,SCT,,0.00,WeatherDisplay:10.37,2013-01-10 08:18:00,
2013-01-10 02:23:00,25.3,20.0,30.48,South,180,1.2,1.2,80,0.00,SCT,,0.00,WeatherDisplay:10.37,2013-01-10 08:23:00,
2013-01-10 02:28:00,25.3,20.0,30.48,WNW,292,0.0,0.1,80,0.00,SCT,,0.00,WeatherDisplay:10.37,2013-01-10 08:28:00,
2013-01-10 02:33:00,25.3,20.0,30.48,WNW,292,0.0,0.0,80,0.00,SCT,,0.00,WeatherDisplay:10.37,2013-01-10 08:33:00,
2013-01-10 02:38:00,25.3,20.0,30.48,NNW,338,0.0,0.0,80,0.00,SCT,,0.00,WeatherDisplay:10.37,2013-01-10 08:38:00,
2013-01-10 02:43:00,25.3,20.0,30.47,SE,135,0.0,0.0,80,0.00,SCT,,0.00,WeatherDisplay:10.37,2013-01-10 08:43:00,
2013-01-10 02:48:00,25.0,19.7,30.47,ESE,112,0.0,0.0,80,0.00,SCT,,0.00,WeatherDisplay:10.37,2013-01-10 08:48:00,
2013-01-10 02:53:00,25.0,20.0,30.47,SE,135,0.0,0.0,81,0.00,SCT,,0.00,WeatherDisplay:10.37,2013-01-10 08:53:00,
2013-01-10 02:58:00,25.0,20.0,30.47,NE,45,0.0,0.0,81,0.00,SCT,,0.00,WeatherDisplay:10.37,2013-01-10 08:58:00,
2013-01-10 03:03:00,25.0,20.0,30.47,NE,45,0.0,0.0,81,0.00,SCT,,0.00,WeatherDisplay:10.37,2013-01-10 09:03:00,
2013-01-10 03:08:00,25.0,20.0,30.47,NE,45,0.0,0.0,81,0.00,SCT,,0.00,WeatherDisplay:10.37,2013-01-10 09:08:00,
2013-01-10 03:13:00,24.8,19.8,30.47,SSE,158,0.0,0.0,81,0.00,SCT,,0.00,WeatherDisplay:10.37,2013-01-10 09:13:00,
2013-01-10 03:18:00,25.0,20.0,30.47,SW,225,0.0,0.0,81,0.00,SCT,,0.00,WeatherDisplay:10.37,2013-01-10 09:18:00,
2013-01-10 03:23:00,24.6,19.6,30.46,South,180,0.0,0.0,81,0.00,SCT,,0.00,WeatherDisplay:10.37,2013-01-10 09:23:00,
2013-01-10 03:28:00,24.6,19.6,30.46,South,180,0.0,0.0,81,0.00,SCT,,0.00,WeatherDisplay:10.37,2013-01-10 09:28:00,
2013-01-10 03:33:00,24.6,19.6,30.46,SE,135,0.0,0.0,81,0.00,SCT,,0.00,WeatherDisplay:10.37,2013-01-10 09:33:00,
2013-01-10 03:38:00,24.6,19.6,30.46,SE,135,1.2,0.0,81,0.00,SCT,,0.00,WeatherDisplay:10.37,2013-01-10 09:38:00,
2013-01-10 03:43:00,25.0,20.0,30.46,NNE,22,0.0,0.0,81,0.00,SCT,,0.00,WeatherDisplay:10.37,2013-01-10 09:43:00,
2013-01-10 03:48:00,24.6,19.6,30.46,ESE,112,0.0,0.0,81,0.00,SCT,,0.00,WeatherDisplay:10.37,2013-01-10 09:48:00,
2013-01-10 03:53:00,24.6,19.6,30.46,NNW,338,0.0,0.0,81,0.00,SCT,,0.00,WeatherDisplay:10.37,2013-01-10 09:53:00,
2013-01-10 03:58:00,24.6,19.9,30.46,South,180,1.2,1.2,82,0.00,SCT,,0.00,WeatherDisplay:10.37,2013-01-10 09:58:00,
2013-01-10 04:03:00,24.6,19.9,30.46,South,180,0.0,0.2,82,0.00,SCT,,0.00,WeatherDisplay:10.37,2013-01-10 10:03:00,
2013-01-10 04:08:00,24.6,19.9,30.46,South,180,0.0,0.1,82,0.00,SCT,,0.00,WeatherDisplay:10.37,2013-01-10 10:08:00,
2013-01-10 04:13:00,24.6,19.9,30.46,NNE,22,0.0,0.0,82,0.00,SCT,,0.00,WeatherDisplay:10.37,2013-01-10 10:13:00,
2013-01-10 04:18:00,24.6,19.9,30.46,NE,45,0.0,0.0,82,0.00,SCT,,0.00,WeatherDisplay:10.37,2013-01-10 10:18:00,
2013-01-10 04:23:00,24.3,19.6,30.46,NNE,22,0.0,0.0,82,0.00,SCT,,0.00,WeatherDisplay:10.37,2013-01-10 10:23:00,
2013-01-10 04:28:00,24.3,19.6,30.46,NNE,22,0.0,0.0,82,0.00,SCT,,0.00,WeatherDisplay:10.37,2013-01-10 10:28:00,
2013-01-10 04:33:00,24.1,19.4,30.46,ENE,68,0.0,0.0,82,0.00,SCT,,0.00,WeatherDisplay:10.37,2013-01-10 10:33:00,
2013-01-10 04:38:00,23.9,19.2,30.46,NE,45,0.0,0.0,82,0.00,SCT,,0.00,WeatherDisplay:10.37,2013-01-10 10:38:00,
2013-01-10 04:43:00,24.1,19.7,30.44,South,180,0.0,0.0,83,0.00,SCT,,0.00,WeatherDisplay:10.37,2013-01-10 10:43:00,
2013-01-10 04:48:00,24.3,19.8,30.44,SSW,202,1.2,0.0,83,0.00,SCT,,0.00,WeatherDisplay:10.37,2013-01-10 10:48:00,
2013-01-10 04:53:00,24.3,19.8,30.44,ENE,68,0.0,0.2,83,0.00,SCT,,0.00,WeatherDisplay:10.37,2013-01-10 10:53:00,
2013-01-10 04:58:00,24.3,19.8,30.44,NNE,22,0.0,0.2,83,0.00,SCT,,0.00,WeatherDisplay:10.37,2013-01-10 10:58:00,
2013-01-10 05:03:00,24.3,19.8,30.44,South,180,0.0,0.0,83,0.00,SCT,,0.00,WeatherDisplay:10.37,2013-01-10 11:03:00,
2013-01-10 05:08:00,24.3,19.8,30.44,SE,135,0.0,0.0,83,0.00,SCT,,0.00,WeatherDisplay:10.37,2013-01-10 11:08:00,
2013-01-10 05:13:00,24.3,19.8,30.44,South,180,1.0,0.0,83,0.00,SCT,,0.00,WeatherDisplay:10.37,2013-01-10 11:13:00,
2013-01-10 05:18:00,24.3,19.8,30.44,South,180,1.2,1.2,83,0.00,SCT,,0.00,WeatherDisplay:10.37,2013-01-10 11:18:00,
2013-01-10 05:23:00,24.3,19.8,30.44,SSE,158,0.0,0.3,83,0.00,SCT,,0.00,WeatherDisplay:10.37,2013-01-10 11:23:00,
2013-01-10 05:28:00,24.3,19.8,30.44,SSE,158,0.0,0.0,83,0.00,SCT,,0.00,WeatherDisplay:10.37,2013-01-10 11:28:00,
2013-01-10 05:33:00,24.1,19.7,30.44,SSE,158,0.0,0.0,83,0.00,SCT,,0.00,WeatherDisplay:10.37,2013-01-10 11:33:00,
2013-01-10 05:38:00,24.1,19.7,30.44,SE,135,0.0,0.0,83,0.00,SCT,,0.00,WeatherDisplay:10.37,2013-01-10 11:38:00,
2013-01-10 05:43:00,24.1,19.7,30.45,ESE,112,0.0,0.0,83,0.00,SCT,,0.00,WeatherDisplay:10.37,2013-01-10 11:43:00,
2013-01-10 05:48:00,24.1,19.7,30.45,SE,135,0.0,0.0,83,0.00,SCT,,0.00,WeatherDisplay:10.37,2013-01-10 11:48:00,
2013-01-10 05:53:00,24.1,19.7,30.45,SE,135,0.0,0.0,83,0.00,SCT,,0.00,WeatherDisplay:10.37,2013-01-10 11:53:00,
2013-01-10 05:58:00,24.1,19.9,30.45,SE,135,0.0,0.0,84,0.00,SCT,,0.00,WeatherDisplay:10.37,2013-01-10 11:58:00,
2013-01-10 06:03:00,24.3,20.1,30.45,ENE,68,0.0,0.0,84,0.00,SCT,,0.00,WeatherDisplay:10.37,2013-01-10 12:03:00,
2013-01-10 06:08:00,24.3,20.1,30.45,ENE,68,0.0,0.0,84,0.00,SCT,,0.00,WeatherDisplay:10.37,2013-01-10 12:08:00,
2013-01-10 06:13:00,23.9,19.5,30.45,SE,135,0.0,0.0,83,0.00,SCT,,0.00,WeatherDisplay:10.37,2013-01-10 12:13:00,
2013-01-10 06:18:00,23.9,19.5,30.45,ESE,112,0.0,0.0,83,0.00,SCT,,0.00,WeatherDisplay:10.37,2013-01-10 12:18:00,
2013-01-10 06:23:00,23.5,19.1,30.45,SE,135,0.0,0.0,83,0.00,SCT,,0.00,WeatherDisplay:10.37,2013-01-10 12:23:00,
2013-01-10 06:28:00,23.5,19.1,30.45,SSE,158,0.0,0.0,83,0.00,SCT,,0.00,WeatherDisplay:10.37,2013-01-10 12:28:00,
2013-01-10 06:33:00,23.9,19.8,30.45,SSE,158,0.0,0.0,84,0.00,SCT,,0.00,WeatherDisplay:10.37,2013-01-10 12:33:00,
2013-01-10 06:38:00,23.9,19.8,30.45,SSE,158,0.0,0.0,84,0.00,SCT,,0.00,WeatherDisplay:10.37,2013-01-10 12:38:00,
2013-01-10 06:43:00,23.9,19.8,30.45,SE,135,0.0,0.0,84,0.00,SCT,,0.00,WeatherDisplay:10.37,2013-01-10 12:43:00,
2013-01-10 06:48:00,23.9,19.8,30.45,SE,135,0.0,0.0,84,0.00,SCT,,0.00,WeatherDisplay:10.37,2013-01-10 12:48:00,
2013-01-10 06:53:00,23.9,19.8,30.45,ESE,112,0.0,0.0,84,0.00,SCT,,0.00,WeatherDisplay:10.37,2013-01-10 12:53:00,
2013-01-10 06:58:00,23.9,19.8,30.45,SSW,202,0.0,0.0,84,0.00,SCT,,0.00,WeatherDisplay:10.37,2013-01-10 12:58:00,
2013-01-10 07:03:00,24.1,19.9,30.45,ESE,112,0.0,0.0,84,0.00,FEW,,0.00,WeatherDisplay:10.37,2013-01-10 13:03:00,
2013-01-10 07:08:00,24.3,20.1,30.45,ESE,112,0.0,0.0,84,0.00,FEW,,0.00,WeatherDisplay:10.37,2013-01-10 13:08:00,
2013-01-10 07:13:00,24.6,20.8,30.45,SSE,158,0.0,0.0,85,0.00,FEW,,0.00,WeatherDisplay:10.37,2013-01-10 13:13:00,
2013-01-10 07:18:00,24.6,20.8,30.45,WSW,248,0.0,0.0,85,0.00,FEW,,0.00,WeatherDisplay:10.37,2013-01-10 13:18:00,
2013-01-10 07:23:00,25.0,21.1,30.45,SE,135,0.0,0.0,85,0.00,FEW,,0.00,WeatherDisplay:10.37,2013-01-10 13:23:00,
2013-01-10 07:28:00,25.3,21.5,30.45,SE,135,0.0,0.0,85,0.00,FEW,,0.00,WeatherDisplay:10.37,2013-01-10 13:28:00,
2013-01-10 07:33:00,25.3,21.5,30.45,SSE,158,0.0,0.0,85,0.00,FEW,,0.00,WeatherDisplay:10.37,2013-01-10 13:33:00,
2013-01-10 07:38:00,25.3,21.5,30.45,South,180,0.0,0.0,85,0.00,FEW,,0.00,WeatherDisplay:10.37,2013-01-10 13:38:00,
2013-01-10 07:43:00,25.7,21.8,30.45,SW,225,0.0,0.0,85,0.00,FEW,,0.00,WeatherDisplay:10.37,2013-01-10 13:43:00,
2013-01-10 07:48:00,25.5,21.6,30.45,West,270,0.0,0.0,85,0.00,FEW,,0.00,WeatherDisplay:10.37,2013-01-10 13:48:00,
2013-01-10 07:53:00,26.1,22.2,30.45,ESE,112,0.0,0.0,85,0.00,FEW,,0.00,WeatherDisplay:10.37,2013-01-10 13:53:00,
2013-01-10 07:58:00,26.1,22.2,30.45,SW,225,0.0,0.0,85,0.00,FEW,,0.00,WeatherDisplay:10.37,2013-01-10 13:58:00,
2013-01-10 08:03:00,26.2,22.3,30.44,SSE,158,0.0,0.0,85,0.00,FEW,,0.00,WeatherDisplay:10.37,2013-01-10 14:03:00,
2013-01-10 08:08:00,26.8,22.9,30.44,SE,135,0.0,0.0,85,0.00,FEW,,0.00,WeatherDisplay:10.37,2013-01-10 14:08:00,
2013-01-10 08:13:00,26.8,22.9,30.44,NNW,338,0.0,0.0,85,0.00,FEW,,0.00,WeatherDisplay:10.37,2013-01-10 14:13:00,
2013-01-10 08:19:00,27.1,23.2,30.44,SSW,202,0.0,0.0,85,0.00,FEW,,0.00,WeatherDisplay:10.37,2013-01-10 14:19:00,
2013-01-10 08:24:00,27.5,23.9,30.45,SW,225,0.0,0.0,86,0.00,FEW,,0.00,WeatherDisplay:10.37,2013-01-10 14:24:00,
2013-01-10 08:29:00,27.9,24.2,30.45,ESE,112,0.0,0.0,86,0.00,FEW,,0.00,WeatherDisplay:10.37,2013-01-10 14:29:00,
2013-01-10 08:34:00,28.2,24.6,30.45,SSE,158,0.0,0.0,86,0.00,FEW,,0.00,WeatherDisplay:10.37,2013-01-10 14:34:00,
2013-01-10 08:39:00,29.1,25.5,30.45,ENE,68,0.0,0.1,86,0.00,FEW,,0.00,WeatherDisplay:10.37,2013-01-10 14:39:00,
2013-01-10 08:44:00,29.5,25.8,30.47,ENE,68,0.0,0.1,86,0.00,FEW,,0.00,WeatherDisplay:10.37,2013-01-10 14:44:00,
2013-01-10 08:49:00,30.0,26.3,30.47,SW,225,0.0,0.0,86,0.00,FEW,,0.00,WeatherDisplay:10.37,2013-01-10 14:49:00,
2013-01-10 08:54:00,30.4,26.7,30.47,SE,135,1.5,0.0,86,0.00,FEW,,0.00,WeatherDisplay:10.37,2013-01-10 14:54:00,
2013-01-10 08:59:00,31.5,27.8,30.47,SE,135,1.3,1.3,86,0.00,FEW,,0.00,WeatherDisplay:10.37,2013-01-10 14:59:00,
2013-01-10 09:04:00,32.5,28.8,30.49,ESE,112,6.9,6.9,86,0.00,SCT,,0.00,WeatherDisplay:10.37,2013-01-10 15:04:00,
2013-01-10 09:09:00,34.0,29.9,30.49,East,90,2.9,2.9,85,0.00,SCT,,0.00,WeatherDisplay:10.37,2013-01-10 15:09:00,
2013-01-10 09:14:00,34.7,30.4,30.49,ESE,112,3.5,3.5,84,0.00,SCT,,0.00,WeatherDisplay:10.37,2013-01-10 15:14:00,
2013-01-10 09:19:00,35.8,30.8,30.49,SE,135,5.9,5.9,82,0.00,SCT,,0.00,WeatherDisplay:10.37,2013-01-10 15:19:00,
2013-01-10 09:24:00,36.3,31.0,30.48,SSE,158,2.3,2.3,81,0.00,SCT,,0.00,WeatherDisplay:10.37,2013-01-10 15:24:00,
2013-01-10 09:29:00,37.2,31.3,30.48,SE,135,4.6,4.6,79,0.00,SCT,,0.00,WeatherDisplay:10.37,2013-01-10 15:29:00,
2013-01-10 09:34:00,37.8,31.5,30.48,ENE,68,2.3,2.6,78,0.00,SCT,,0.00,WeatherDisplay:10.37,2013-01-10 15:34:00,
2013-01-10 09:39:00,38.7,31.7,30.48,SE,135,2.3,3.1,76,0.00,SCT,,0.00,WeatherDisplay:10.37,2013-01-10 15:39:00,
2013-01-10 09:44:00,39.0,31.8,30.48,South,180,3.5,3.5,75,0.00,SCT,,0.00,WeatherDisplay:10.37,2013-01-10 15:44:00,
2013-01-10 09:49:00,39.9,32.0,30.48,SSE,158,6.9,6.9,73,0.00,SCT,,0.00,WeatherDisplay:10.37,2013-01-10 15:49:00,
2013-01-10 09:54:00,40.1,31.4,30.48,SE,135,4.6,4.6,71,0.00,SCT,,0.00,WeatherDisplay:10.37,2013-01-10 15:54:00,
2013-01-10 09:59:00,40.3,31.3,30.48,SE,135,2.4,3.6,70,0.00,SCT,,0.00,WeatherDisplay:10.37,2013-01-10 15:59:00,
2013-01-10 10:04:00,40.5,31.1,30.48,South,180,3.5,3.5,69,0.00,OVC,,0.00,WeatherDisplay:10.37,2013-01-10 16:04:00,
2013-01-10 10:09:00,40.5,31.1,30.48,SE,135,6.9,6.9,69,0.00,OVC,,0.00,WeatherDisplay:10.37,2013-01-10 16:09:00,
2013-01-10 10:14:00,40.8,31.1,30.26,SSE,158,4.6,4.6,68,0.00,OVC,,0.00,WeatherDisplay:10.37,2013-01-10 16:14:00,
2013-01-10 10:19:00,40.6,30.5,30.48,SE,135,4.6,4.6,67,0.00,OVC,,0.00,WeatherDisplay:10.37,2013-01-10 16:19:00,
2013-01-10 10:24:00,40.6,30.5,30.47,ESE,112,10.4,10.4,67,0.00,OVC,,0.00,WeatherDisplay:10.37,2013-01-10 16:24:00,
2013-01-10 10:29:00,40.6,30.5,30.47,WSW,248,4.6,4.7,67,0.00,OVC,,0.00,WeatherDisplay:10.37,2013-01-10 16:29:00,
2013-01-10 10:34:00,40.6,30.2,30.47,SE,135,6.1,6.1,66,0.00,OVC,,0.00,WeatherDisplay:10.37,2013-01-10 16:34:00,
2013-01-10 10:39:00,41.0,30.9,30.47,SE,135,3.8,3.9,67,0.00,OVC,,0.00,WeatherDisplay:10.37,2013-01-10 16:39:00,
2013-01-10 10:44:00,41.2,30.7,30.46,WSW,248,6.9,6.9,66,0.00,OVC,,0.00,WeatherDisplay:10.37,2013-01-10 16:44:00,
2013-01-10 10:49:00,41.4,30.8,30.46,SE,135,6.9,6.9,66,0.00,OVC,,0.00,WeatherDisplay:10.37,2013-01-10 16:49:00,
2013-01-10 10:54:00,41.4,30.8,30.46,SSW,202,7.1,7.1,66,0.00,OVC,,0.00,WeatherDisplay:10.37,2013-01-10 16:54:00,
2013-01-10 10:59:00,41.5,30.6,30.46,ENE,68,3.5,3.5,65,0.00,OVC,,0.00,WeatherDisplay:10.37,2013-01-10 16:59:00,
2013-01-10 11:04:00,41.7,30.8,30.43,East,90,3.5,3.5,65,0.00,BKN,,0.00,WeatherDisplay:10.37,2013-01-10 17:04:00,
2013-01-10 11:09:00,41.9,31.0,30.43,SSE,158,3.9,3.9,65,0.00,BKN,,0.00,WeatherDisplay:10.37,2013-01-10 17:09:00,
2013-01-10 11:14:00,42.1,30.8,30.43,SE,135,4.6,4.6,64,0.00,BKN,,0.00,WeatherDisplay:10.37,2013-01-10 17:14:00,
2013-01-10 11:19:00,42.4,30.7,30.43,SSE,158,4.6,4.6,63,0.00,BKN,,0.00,WeatherDisplay:10.37,2013-01-10 17:19:00,
2013-01-10 11:24:00,42.8,31.1,30.41,SSE,158,4.6,4.6,63,0.00,BKN,,0.00,WeatherDisplay:10.37,2013-01-10 17:24:00,
2013-01-10 11:29:00,43.3,31.2,30.41,SSE,158,6.9,6.9,62,0.00,BKN,,0.00,WeatherDisplay:10.37,2013-01-10 17:29:00,
2013-01-10 11:34:00,43.5,31.4,30.41,NE,45,8.1,8.1,62,0.00,BKN,,0.00,WeatherDisplay:10.37,2013-01-10 17:34:00,
2013-01-10 11:39:00,44.1,31.1,30.41,SW,225,6.1,6.1,60,0.00,BKN,,0.00,WeatherDisplay:10.37,2013-01-10 17:39:00,
2013-01-10 11:44:00,44.2,31.2,30.40,SSE,158,10.4,10.4,60,0.00,BKN,,0.00,WeatherDisplay:10.37,2013-01-10 17:44:00,
2013-01-10 11:49:00,45.0,31.5,30.40,SE,135,7.4,7.4,59,0.00,BKN,,0.00,WeatherDisplay:10.37,2013-01-10 17:49:00,
2013-01-10 11:54:00,44.8,30.9,30.40,SSE,158,4.6,4.6,58,0.00,BKN,,0.00,WeatherDisplay:10.37,2013-01-10 17:54:00,
2013-01-10 11:59:00,44.4,30.6,30.40,SE,135,6.9,6.9,58,0.00,BKN,,0.00,WeatherDisplay:10.37,2013-01-10 17:59:00,
2013-01-10 12:04:00,44.4,30.6,30.39,SSE,158,9.4,9.4,58,0.00,OVC,,0.00,WeatherDisplay:10.37,2013-01-10 18:04:00,
2013-01-10 12:09:00,44.4,30.6,30.39,SSE,158,9.4,9.4,58,0.00,OVC,,0.00,WeatherDisplay:10.37,2013-01-10 18:09:00,
2013-01-10 12:14:00,44.8,30.9,30.39,NNW,338,6.9,6.9,58,0.00,OVC,,0.00,WeatherDisplay:10.37,2013-01-10 18:14:00,
2013-01-10 12:19:00,44.6,30.7,30.39,South,180,11.5,11.5,58,0.00,OVC,,0.00,WeatherDisplay:10.37,2013-01-10 18:19:00,
2013-01-10 12:24:00,44.2,30.0,30.37,SE,135,6.9,6.9,57,0.00,OVC,,0.00,WeatherDisplay:10.37,2013-01-10 18:24:00,
2013-01-10 12:29:00,44.1,30.2,30.37,SSW,202,3.5,4.5,58,0.00,OVC,,0.00,WeatherDisplay:10.37,2013-01-10 18:29:00,
2013-01-10 12:34:00,44.2,30.8,30.37,SSE,158,4.6,4.6,59,0.00,OVC,,0.00,WeatherDisplay:10.37,2013-01-10 18:34:00,
2013-01-10 12:39:00,44.4,30.6,30.37,SE,135,4.6,4.6,58,0.00,OVC,,0.00,WeatherDisplay:10.37,2013-01-10 18:39:00,
2013-01-10 12:44:00,44.4,30.6,30.36,South,180,10.4,10.4,58,0.00,OVC,,0.00,WeatherDisplay:10.37,2013-01-10 18:44:00,
2013-01-10 12:49:00,44.4,30.1,30.36,SSE,158,3.5,4.5,57,0.00,OVC,,0.00,WeatherDisplay:10.37,2013-01-10 18:49:00,
2013-01-10 12:54:00,44.4,30.1,30.36,SSE,158,6.9,6.9,57,0.00,OVC,,0.00,WeatherDisplay:10.37,2013-01-10 18:54:00,
2013-01-10 12:59:00,44.1,29.8,30.36,SE,135,4.6,4.7,57,0.00,OVC,,0.00,WeatherDisplay:10.37,2013-01-10 18:59:00,
2013-01-10 13:04:00,44.1,29.8,30.34,SSE,158,6.9,6.9,57,0.00,OVC,,0.00,WeatherDisplay:10.37,2013-01-10 19:04:00,
2013-01-10 13:09:00,44.1,30.2,30.34,East,90,11.5,11.5,58,0.00,OVC,,0.00,WeatherDisplay:10.37,2013-01-10 19:09:00,
2013-01-10 13:14:00,44.1,29.8,30.34,ESE,112,6.9,6.9,57,0.00,OVC,,0.00,WeatherDisplay:10.37,2013-01-10 19:14:00,
2013-01-10 13:19:00,44.1,29.8,30.34,South,180,6.9,6.9,57,0.00,OVC,,0.00,WeatherDisplay:10.37,2013-01-10 19:19:00,
2013-01-10 13:24:00,43.9,29.6,30.34,ESE,112,4.6,4.6,57,0.00,OVC,,0.00,WeatherDisplay:10.37,2013-01-10 19:24:00,
2013-01-10 13:29:00,44.1,30.2,30.34,SSE,158,2.3,3.7,58,0.00,OVC,,0.00,WeatherDisplay:10.37,2013-01-10 19:29:00,
2013-01-10 13:34:00,44.1,30.2,30.34,NE,45,2.4,2.8,58,0.00,OVC,,0.00,WeatherDisplay:10.37,2013-01-10 19:34:00,
2013-01-10 13:39:00,44.4,30.6,30.34,SE,135,6.9,6.9,58,0.00,OVC,,0.00,WeatherDisplay:10.37,2013-01-10 19:39:00,
2013-01-10 13:44:00,44.2,30.4,30.32,SSE,158,8.1,8.1,58,0.00,OVC,,0.00,WeatherDisplay:10.37,2013-01-10 19:44:00,
2013-01-10 13:49:00,43.9,30.0,30.32,SE,135,7.0,7.0,58,0.00,OVC,,0.00,WeatherDisplay:10.37,2013-01-10 19:49:00,
2013-01-10 13:54:00,44.1,29.8,30.32,SSE,158,8.1,8.1,57,0.00,OVC,,0.00,WeatherDisplay:10.37,2013-01-10 19:54:00,
2013-01-10 13:59:00,44.1,29.8,30.30,SE,135,9.2,9.2,57,0.00,OVC,,0.00,WeatherDisplay:10.37,2013-01-10 19:59:00,
2013-01-10 14:04:00,44.1,29.8,30.30,SSE,158,8.1,8.1,57,0.00,OVC,,0.00,WeatherDisplay:10.37,2013-01-10 20:04:00,
2013-01-10 14:09:00,44.1,29.8,30.30,ESE,112,3.5,3.8,57,0.00,OVC,,0.00,WeatherDisplay:10.37,2013-01-10 20:09:00,
2013-01-10 14:14:00,43.9,29.6,30.30,SE,135,6.0,6.0,57,0.00,OVC,,0.00,WeatherDisplay:10.37,2013-01-10 20:14:00,
2013-01-10 14:19:00,44.1,29.8,30.28,ESE,112,6.9,6.9,57,0.00,OVC,,0.00,WeatherDisplay:10.37,2013-01-10 20:19:00,
2013-01-10 14:24:00,43.7,29.5,30.28,East,90,6.9,6.9,57,0.00,OVC,,0.00,WeatherDisplay:10.37,2013-01-10 20:24:00,
2013-01-10 14:29:00,44.1,29.8,30.28,SE,135,3.5,3.8,57,0.00,OVC,,0.00,WeatherDisplay:10.37,2013-01-10 20:29:00,
2013-01-10 14:34:00,43.9,29.6,30.28,SSE,158,9.2,9.2,57,0.00,OVC,,0.00,WeatherDisplay:10.37,2013-01-10 20:34:00,
2013-01-10 14:39:00,44.1,29.8,30.28,SE,135,9.2,9.2,57,0.00,OVC,,0.00,WeatherDisplay:10.37,2013-01-10 20:39:00,
2013-01-10 14:44:00,43.7,29.5,30.28,SE,135,5.8,5.8,57,0.00,OVC,,0.00,WeatherDisplay:10.37,2013-01-10 20:44:00,
2013-01-10 14:49:00,43.5,29.7,30.28,ENE,68,5.8,5.8,58,0.00,OVC,,0.00,WeatherDisplay:10.37,2013-01-10 20:49:00,
2013-01-10 14:54:00,43.5,29.7,30.28,SSE,158,4.6,4.6,58,0.00,OVC,,0.00,WeatherDisplay:10.37,2013-01-10 20:54:00,
2013-01-10 14:59:00,43.3,29.5,30.26,ESE,112,5.9,5.9,58,0.00,OVC,,0.00,WeatherDisplay:10.37,2013-01-10 20:59:00,
2013-01-10 15:04:00,43.3,29.5,30.26,SE,135,7.4,7.4,58,0.00,OVC,,0.00,WeatherDisplay:10.37,2013-01-10 21:04:00,
2013-01-10 15:09:00,43.3,29.5,30.26,ESE,112,4.6,4.7,58,0.00,OVC,,0.00,WeatherDisplay:10.37,2013-01-10 21:09:00,
2013-01-10 15:14:00,43.3,29.5,30.26,ESE,112,8.1,8.1,58,0.00,OVC,,0.00,WeatherDisplay:10.37,2013-01-10 21:14:00,
2013-01-10 15:19:00,43.3,29.5,30.20,SSE,158,6.6,6.6,58,0.00,OVC,,0.00,WeatherDisplay:10.37,2013-01-10 21:19:00,
2013-01-10 15:24:00,43.2,29.4,30.20,East,90,6.9,6.9,58,0.00,OVC,,0.00,WeatherDisplay:10.37,2013-01-10 21:24:00,
2013-01-10 15:30:00,42.8,29.5,30.20,SE,144,3.0,7.0,59,0.00,OVC,,0.00,WeatherDisplay:10.37,2013-01-10 21:30:00,
2013-01-10 15:35:00,42.8,29.9,30.20,SE,135,5.8,5.8,60,0.00,OVC,,0.00,WeatherDisplay:10.37,2013-01-10 21:35:00,
2013-01-10 15:40:00,42.6,30.1,30.19,SE,135,4.9,5.1,61,0.00,OVC,,0.00,WeatherDisplay:10.37,2013-01-10 21:40:00,
2013-01-10 15:45:00,42.6,30.1,30.19,SW,225,3.5,4.5,61,0.00,OVC,,0.00,WeatherDisplay:10.37,2013-01-10 21:45:00,
2013-01-10 15:50:00,42.6,30.1,30.19,SSE,158,3.8,3.8,61,0.00,OVC,,0.00,WeatherDisplay:10.37,2013-01-10 21:50:00,
2013-01-10 15:55:00,42.6,30.1,30.19,SSE,158,6.0,6.0,61,0.00,OVC,,0.00,WeatherDisplay:10.37,2013-01-10 21:55:00,
2013-01-10 16:00:00,42.6,30.1,30.18,ESE,112,7.0,7.0,61,0.00,OVC,,0.00,WeatherDisplay:10.37,2013-01-10 22:00:00,
2013-01-10 16:05:00,42.4,30.3,30.18,SE,135,5.8,5.8,62,0.00,OVC,,0.00,WeatherDisplay:10.37,2013-01-10 22:05:00,
2013-01-10 16:10:00,42.3,30.9,30.18,SSE,148,5.0,9.0,64,0.00,OVC,,0.00,WeatherDisplay:10.37,2013-01-10 22:10:00,
2013-01-10 16:15:00,41.9,31.0,30.18,WNW,292,4.6,4.6,65,0.00,OVC,,0.00,WeatherDisplay:10.37,2013-01-10 22:15:00,
2013-01-10 16:20:00,41.5,31.0,30.18,SSE,149,5.0,9.0,66,0.00,OVC,,0.00,WeatherDisplay:10.37,2013-01-10 22:20:00,
2013-01-10 16:25:00,41.5,31.0,30.17,SE,135,2.6,4.3,66,0.00,OVC,,0.00,WeatherDisplay:10.37,2013-01-10 22:25:00,
2013-01-10 16:30:00,41.4,30.8,30.17,SSE,147,5.0,10.0,66,0.00,OVC,,0.00,WeatherDisplay:10.37,2013-01-10 22:30:00,
2013-01-10 16:35:00,41.4,30.8,30.17,SE,135,6.9,6.9,66,0.00,OVC,,0.00,WeatherDisplay:10.37,2013-01-10 22:35:00,
2013-01-10 16:40:00,41.5,31.0,30.17,SE,135,5.8,5.8,66,0.00,OVC,,0.00,WeatherDisplay:10.37,2013-01-10 22:40:00,
2013-01-10 16:45:00,41.4,30.8,30.17,SSE,158,8.1,8.1,66,0.00,OVC,,0.00,WeatherDisplay:10.37,2013-01-10 22:45:00,
2013-01-10 16:50:00,41.5,31.0,30.17,SE,128,5.0,10.0,66,0.00,OVC,,0.00,WeatherDisplay:10.37,2013-01-10 22:50:00,
2013-01-10 16:55:00,41.4,31.2,30.17,ESE,112,6.9,6.9,67,0.00,OVC,,0.00,WeatherDisplay:10.37,2013-01-10 22:55:00,
2013-01-10 17:00:00,41.0,31.2,30.16,SSE,158,6.2,6.2,68,0.00,OVC,,0.00,WeatherDisplay:10.37,2013-01-10 23:00:00,
2013-01-10 17:05:00,40.8,31.4,30.16,NW,315,7.1,7.1,69,0.00,OVC,,0.00,WeatherDisplay:10.37,2013-01-10 23:05:00,
2013-01-10 17:10:00,40.6,31.3,30.16,WSW,248,5.8,5.8,69,0.00,OVC,,0.00,WeatherDisplay:10.37,2013-01-10 23:10:00,
2013-01-10 17:15:00,40.6,31.6,30.16,ESE,112,7.2,7.2,70,0.00,OVC,,0.00,WeatherDisplay:10.37,2013-01-10 23:15:00,
2013-01-10 17:20:00,40.8,31.8,30.15,SE,135,10.4,10.4,70,0.00,OVC,,0.00,WeatherDisplay:10.37,2013-01-10 23:20:00,
2013-01-10 17:25:00,40.6,31.6,30.15,South,180,5.8,5.8,70,0.00,OVC,,0.00,WeatherDisplay:10.37,2013-01-10 23:25:00,
2013-01-10 17:30:00,40.8,31.8,30.15,SE,135,5.8,5.8,70,0.00,OVC,,0.00,WeatherDisplay:10.37,2013-01-10 23:30:00,
2013-01-10 17:35:00,40.8,31.8,30.15,South,180,7.4,7.4,70,0.00,OVC,,0.00,WeatherDisplay:10.37,2013-01-10 23:35:00,
2013-01-10 17:40:00,40.8,31.8,30.13,SSE,158,9.5,9.5,70,0.00,OVC,,0.00,WeatherDisplay:10.37,2013-01-10 23:40:00,
2013-01-10 17:45:00,40.8,31.8,30.13,SE,135,12.7,12.7,70,0.00,OVC,,0.00,WeatherDisplay:10.37,2013-01-10 23:45:00,
2013-01-10 17:50:00,40.8,32.1,30.13,ESE,112,5.8,5.8,71,0.00,OVC,,0.00,WeatherDisplay:10.37,2013-01-10 23:50:00,
2013-01-10 17:55:00,40.6,32.0,30.13,SSE,158,3.5,5.1,71,0.00,OVC,,0.00,WeatherDisplay:10.37,2013-01-10 23:55:00,
2013-01-10 18:00:00,40.6,32.3,30.13,SSE,158,8.4,8.4,72,0.00,OVC,,0.00,WeatherDisplay:10.37,2013-01-11 00:00:00,
2013-01-10 18:05:00,40.5,32.5,30.13,SSE,158,7.0,7.0,73,0.00,OVC,,0.00,WeatherDisplay:10.37,2013-01-11 00:05:00,
2013-01-10 18:10:00,40.5,32.8,30.13,SSE,158,9.2,9.2,74,0.00,OVC,,0.00,WeatherDisplay:10.37,2013-01-11 00:10:00,
2013-01-10 18:15:00,40.5,33.2,30.13,ESE,112,11.2,11.2,75,0.00,OVC,,0.00,WeatherDisplay:10.37,2013-01-11 00:15:00,
2013-01-10 18:20:00,40.5,33.2,30.12,SE,135,9.2,9.2,75,0.00,OVC,,0.00,WeatherDisplay:10.37,2013-01-11 00:20:00,
2013-01-10 18:25:00,40.1,33.1,30.12,NW,315,8.2,8.2,76,0.00,OVC,,0.00,WeatherDisplay:10.37,2013-01-11 00:25:00,
2013-01-10 18:30:00,39.9,33.3,30.12,SSE,158,6.9,6.9,77,0.00,OVC,,0.00,WeatherDisplay:10.37,2013-01-11 00:30:00,
2013-01-10 18:35:00,39.9,33.3,30.12,South,180,6.9,6.9,77,0.00,OVC,,0.00,WeatherDisplay:10.37,2013-01-11 00:35:00,
2013-01-10 18:40:00,39.7,33.4,30.09,SE,135,8.1,8.1,78,0.00,OVC,,0.00,WeatherDisplay:10.37,2013-01-11 00:40:00,
2013-01-10 18:45:00,39.6,33.6,30.09,SE,135,4.8,4.8,79,0.00,OVC,,0.00,WeatherDisplay:10.37,2013-01-11 00:45:00,
2013-01-10 18:50:00,39.7,34.1,30.09,SE,135,11.5,11.5,80,0.03,RA,,0.03,WeatherDisplay:10.37,2013-01-11 00:50:00,
2013-01-10 18:55:00,39.4,34.0,30.09,SE,135,8.4,8.4,81,0.03,RA,,0.03,WeatherDisplay:10.37,2013-01-11 00:55:00,
2013-01-10 19:00:00,39.4,34.3,30.08,SE,135,8.1,8.1,82,0.03,OVC,,0.03,WeatherDisplay:10.37,2013-01-11 01:00:00,
2013-01-10 19:05:00,39.2,34.5,30.08,SSE,158,9.9,9.9,83,0.03,-RA,,0.03,WeatherDisplay:10.37,2013-01-11 01:05:00,
2013-01-10 19:10:00,39.2,34.5,30.08,South,180,9.2,9.2,83,0.03,-RA,,0.03,WeatherDisplay:10.37,2013-01-11 01:10:00,
2013-01-10 19:15:00,39.4,34.9,30.08,SE,135,8.1,8.1,84,0.03,-RA,,0.06,WeatherDisplay:10.37,2013-01-11 01:15:00,
2013-01-10 19:20:00,39.2,34.8,30.07,SE,135,17.3,17.3,84,0.06,-RA,,0.06,WeatherDisplay:10.37,2013-01-11 01:20:00,
2013-01-10 19:25:00,39.2,35.1,30.07,South,180,5.8,5.8,85,0.06,-RA,,0.06,WeatherDisplay:10.37,2013-01-11 01:25:00,
2013-01-10 19:30:00,39.2,35.1,30.07,SSE,158,6.9,6.9,85,0.08,-RA,,0.08,WeatherDisplay:10.37,2013-01-11 01:30:00,
2013-01-10 19:35:00,39.0,35.2,30.07,SE,135,7.2,7.2,86,0.08,-RA,,0.08,WeatherDisplay:10.37,2013-01-11 01:35:00,
2013-01-10 19:40:00,39.2,35.4,30.06,SE,135,7.2,7.2,86,0.08,-RA,,0.08,WeatherDisplay:10.37,2013-01-11 01:40:00,
2013-01-10 19:45:00,39.2,35.7,30.06,SSE,158,3.5,5.6,87,0.08,-RA,,0.08,WeatherDisplay:10.37,2013-01-11 01:45:00,
2013-01-10 19:50:00,39.2,35.7,30.06,North,0,4.6,4.8,87,0.06,-RA,,0.08,WeatherDisplay:10.37,2013-01-11 01:50:00,
2013-01-10 19:55:00,39.2,35.7,30.06,South,180,4.6,4.7,87,0.08,-RA,,0.11,WeatherDisplay:10.37,2013-01-11 01:55:00,
2013-01-10 20:00:00,39.2,35.7,30.04,SSE,158,11.5,11.5,87,0.08,-RA,,0.11,WeatherDisplay:10.37,2013-01-11 02:00:00,
2013-01-10 20:05:00,39.4,36.1,30.04,SE,135,6.9,6.9,88,0.08,-RA,,0.11,WeatherDisplay:10.37,2013-01-11 02:05:00,
2013-01-10 20:10:00,39.4,36.1,30.04,ENE,68,8.1,8.1,88,0.08,-RA,,0.11,WeatherDisplay:10.37,2013-01-11 02:10:00,
2013-01-10 20:15:00,39.2,35.9,30.04,SE,135,6.6,6.6,88,0.08,-RA,,0.11,WeatherDisplay:10.37,2013-01-11 02:15:00,
2013-01-10 20:20:00,39.2,35.9,30.04,SE,135,8.1,8.1,88,0.06,-RA,,0.11,WeatherDisplay:10.37,2013-01-11 02:20:00,
2013-01-10 20:25:00,39.2,35.9,30.04,SE,135,6.9,6.9,88,0.06,-RA,,0.11,WeatherDisplay:10.37,2013-01-11 02:25:00,
2013-01-10 20:30:00,39.2,35.9,30.04,SSE,158,10.4,10.4,88,0.03,-RA,,0.11,WeatherDisplay:10.37,2013-01-11 02:30:00,
2013-01-10 20:35:00,39.4,36.1,30.04,SE,135,6.9,6.9,88,0.03,-RA,,0.11,WeatherDisplay:10.37,2013-01-11 02:35:00,
2013-01-10 20:40:00,39.4,36.4,30.03,SSE,158,6.9,6.9,89,0.03,-RA,,0.11,WeatherDisplay:10.37,2013-01-11 02:40:00,
2013-01-10 20:45:00,39.4,36.4,30.03,SE,135,2.3,5.2,89,0.03,-RA,,0.11,WeatherDisplay:10.37,2013-01-11 02:45:00,
2013-01-10 20:50:00,39.4,36.4,30.03,SE,135,6.9,6.9,89,0.03,-RA,,0.11,WeatherDisplay:10.37,2013-01-11 02:50:00,
2013-01-10 20:56:00,39.4,36.4,30.03,SE,135,6.9,6.9,89,0.00,-RA,,0.11,WeatherDisplay:10.37,2013-01-11 02:56:00,
2013-01-10 21:01:00,39.4,36.4,30.02,South,180,12.7,12.7,89,0.03,-RA,,0.14,WeatherDisplay:10.37,2013-01-11 03:01:00,
2013-01-10 21:06:00,39.4,36.4,30.02,South,180,8.1,8.1,89,0.03,-RA,,0.14,WeatherDisplay:10.37,2013-01-11 03:06:00,
2013-01-10 21:11:00,39.7,36.8,30.02,SSE,158,11.5,11.5,89,0.03,-RA,,0.14,WeatherDisplay:10.37,2013-01-11 03:11:00,
2013-01-10 21:16:00,39.7,36.8,30.02,SSE,158,8.1,8.1,89,0.03,-RA,,0.14,WeatherDisplay:10.37,2013-01-11 03:16:00,
2013-01-10 21:21:00,39.7,36.8,30.00,SE,135,5.8,5.8,89,0.03,-RA,,0.14,WeatherDisplay:10.37,2013-01-11 03:21:00,
2013-01-10 21:26:00,39.6,36.9,30.00,SE,135,4.6,4.6,90,0.06,-RA,,0.17,WeatherDisplay:10.37,2013-01-11 03:26:00,
2013-01-10 21:31:00,39.6,36.9,30.00,South,180,8.1,8.1,90,0.08,-RA,,0.19,WeatherDisplay:10.37,2013-01-11 03:31:00,
2013-01-10 21:36:00,39.7,37.0,30.00,SE,135,11.5,11.5,90,0.08,-RA,,0.19,WeatherDisplay:10.37,2013-01-11 03:36:00,
2013-01-10 21:41:00,39.7,37.0,30.00,SE,135,8.3,8.3,90,0.11,-RA,,0.22,WeatherDisplay:10.37,2013-01-11 03:41:00,
2013-01-10 21:46:00,39.9,37.2,30.00,SE,135,8.1,8.1,90,0.17,-RA,,0.28,WeatherDisplay:10.37,2013-01-11 03:46:00,
2013-01-10 21:51:00,39.9,37.2,30.00,ESE,112,6.9,6.9,90,0.19,-RA,,0.30,WeatherDisplay:10.37,2013-01-11 03:51:00,
2013-01-10 21:56:00,40.1,37.4,30.00,SSE,158,6.9,6.9,90,0.22,-RA,,0.33,WeatherDisplay:10.37,2013-01-11 03:56:00,
2013-01-10 22:01:00,39.9,37.2,29.99,South,180,8.1,8.1,90,0.19,-RA,,0.33,WeatherDisplay:10.37,2013-01-11 04:01:00,
2013-01-10 22:06:00,39.9,37.2,29.99,South,180,10.4,10.4,90,0.19,OVC,,0.33,WeatherDisplay:10.37,2013-01-11 04:06:00,
2013-01-10 22:11:00,39.9,37.2,29.99,SE,135,8.1,8.1,90,0.19,OVC,,0.33,WeatherDisplay:10.37,2013-01-11 04:11:00,
2013-01-10 22:16:00,40.1,37.4,29.99,SSW,202,6.9,6.9,90,0.19,OVC,,0.33,WeatherDisplay:10.37,2013-01-11 04:16:00,
2013-01-10 22:21:00,40.1,37.4,29.98,South,180,5.8,5.8,90,0.19,OVC,,0.33,WeatherDisplay:10.37,2013-01-11 04:21:00,
2013-01-10 22:26:00,40.5,38.0,29.98,SW,225,5.8,5.8,91,0.17,OVC,,0.33,WeatherDisplay:10.37,2013-01-11 04:26:00,
2013-01-10 22:31:00,40.5,38.0,29.98,South,180,3.8,3.8,91,0.14,OVC,,0.33,WeatherDisplay:10.37,2013-01-11 04:31:00,
2013-01-10 22:36:00,40.6,38.2,29.98,SSE,158,9.2,9.2,91,0.17,RA,,0.36,WeatherDisplay:10.37,2013-01-11 04:36:00,
2013-01-10 22:41:00,40.6,38.2,29.97,WSW,248,7.0,7.0,91,0.14,RA,,0.36,WeatherDisplay:10.37,2013-01-11 04:41:00,
2013-01-10 22:46:00,40.8,38.4,29.97,SE,135,8.1,8.1,91,0.08,OVC,,0.36,WeatherDisplay:10.37,2013-01-11 04:46:00,
2013-01-10 22:51:00,40.6,38.2,29.97,SE,135,5.8,5.8,91,0.06,OVC,,0.36,WeatherDisplay:10.37,2013-01-11 04:51:00,
2013-01-10 22:56:00,40.8,38.4,29.97,SSE,158,5.8,5.8,91,0.03,OVC,,0.36,WeatherDisplay:10.37,2013-01-11 04:56:00,
2013-01-10 23:00:00,40.8,38.4,29.95,SSE,158,5.8,5.8,91,0.03,OVC,,0.36,WeatherDisplay:10.37,2013-01-11 05:00:00,
2013-01-10 23:04:00,40.8,38.4,29.95,SE,135,8.1,8.1,91,0.03,OVC,,0.36,WeatherDisplay:10.37,2013-01-11 05:04:00,
2013-01-10 23:09:00,41.2,38.8,29.95,SSE,158,6.9,6.9,91,0.03,OVC,,0.36,WeatherDisplay:10.37,2013-01-11 05:09:00,
2013-01-10 23:14:00,41.2,38.8,29.95,SE,135,5.8,5.8,91,0.06,RA,,0.39,WeatherDisplay:10.37,2013-01-11 05:14:00,
2013-01-10 23:19:00,41.4,38.9,29.95,SSE,158,4.6,4.8,91,0.06,RA,,0.39,WeatherDisplay:10.37,2013-01-11 05:19:00,
2013-01-10 23:24:00,41.4,39.2,29.95,SSE,158,6.9,6.9,92,0.06,OVC,,0.39,WeatherDisplay:10.37,2013-01-11 05:24:00,
2013-01-10 23:29:00,41.7,39.6,29.95,South,180,5.8,5.8,92,0.08,RA,,0.41,WeatherDisplay:10.37,2013-01-11 05:29:00,
2013-01-10 23:34:00,41.9,39.7,29.95,East,90,13.8,13.8,92,0.06,RA,,0.41,WeatherDisplay:10.37,2013-01-11 05:34:00,
2013-01-10 23:39:00,42.1,39.9,29.94,SSE,158,10.4,10.4,92,0.06,OVC,,0.41,WeatherDisplay:10.37,2013-01-11 05:39:00,
2013-01-10 23:44:00,42.1,39.9,29.94,South,180,3.5,4.8,92,0.08,RA,,0.44,WeatherDisplay:10.37,2013-01-11 05:44:00,
2013-01-10 23:49:00,42.3,40.1,29.94,SSE,158,8.1,8.1,92,0.08,RA,,0.44,WeatherDisplay:10.37,2013-01-11 05:49:00,
2013-01-10 23:54:00,42.6,40.5,29.94,SE,135,9.2,9.2,92,0.08,OVC,,0.44,WeatherDisplay:10.37,2013-01-11 05:54:00,
2013-01-10 23:59:00,42.8,40.6,29.92,ESE,112,6.9,6.9,92,0.11,RA,,0.47,WeatherDisplay:10.37,2013-01-11 05:59:00,